Total_Precipitation_Accumulation
3.05 3.39 3.39 3.27 3.23 3.32 3.26 3.14 2.96 2.96 2.95 2.76 2.56 2.59 2.63 2.65 2.79 3.01 3.16 3.16 3.22 3.52 4.03 4.35 4.40 4.23 4.10 4.05 4.08 3.83 3.56 3.42 3.30 3.07 2.89 2.75 2.61 2.52 2.48 2.47 2.42 2.22 2.15
3.55 3.78 3.81 3.66 3.46 3.55 3.54 3.47 3.30 3.35 3.35 3.30 3.07 2.96 2.88 2.92 2.94 3.02 3.33 3.55 3.44 3.46 3.96 4.59 4.88 4.83 4.66 4.46 4.29 3.93 3.73 3.62 3.50 3.28 3.08 2.86 2.61 2.53 2.53 2.53 2.54 2.36 2.21
4.13 4.23 4.29 4.00 3.75 3.79 4.02 4.05 3.94 3.88 3.60 3.50 3.42 3.41 3.25 3.07 3.07 3.20 3.48 3.95 3.82 3.91 4.12 4.29 4.47 4.51 4.70 4.79 4.72 4.47 4.10 3.82 3.68 3.51 3.33 3.17 2.92 2.70 2.63 2.62 2.68 2.62 2.41
4.19 4.37 4.39 4.24 4.11 4.08 4.36 4.53 4.48 4.41 4.20 4.10 3.89 3.67 3.45 3.41 3.36 3.46 3.61 3.89 4.17 4.16 4.37 4.31 4.15 4.14 4.44 4.69 4.81 4.82 4.55 4.14 3.87 3.85 3.74 3.55 3.26 3.06 2.88 2.75 2.75 2.73 2.60
4.56 4.67 4.56 4.58 4.65 4.73 4.70 4.44 4.61 4.48 4.48 4.41 3.94 3.73 3.47 3.43 3.60 3.54 3.63 3.74 3.98 4.02 4.11 4.09 4.11 4.10 4.26 4.61 4.74 4.90 4.84 4.59 4.30 4.11 4.13 3.99 3.71 3.42 3.16 2.93 2.75 2.69 2.64
4.96 5.29 5.25 5.15 5.17 5.13 4.95 4.85 4.89 4.63 4.50 4.43 3.94 3.75 3.52 3.40 3.43 3.53 3.51 3.56 3.57 3.48 3.51 3.56 3.83 3.76 3.96 4.18 4.27 4.45 4.72 4.82 4.60 4.27 4.12 4.14 3.90 3.50 3.12 2.97 2.86 2.77 2.70
5.80 5.90 5.72 5.57 5.43 5.39 5.31 5.28 5.14 4.90 4.62 4.59 4.52 4.13 3.58 3.35 3.34 3.30 3.32 3.39 3.41 3.36 3.42 3.46 3.37 3.28 3.29 3.57 3.69 3.86 4.21 4.57 4.59 4.53 4.42 4.26 4.08 3.69 3.27 2.99 2.92 2.87 2.78
5.95 5.86 5.99 5.93 5.78 5.68 5.52 5.33 5.23 5.03 4.65 4.56 4.55 4.50 3.99 3.67 3.26 2.88 2.87 2.94 3.10 3.28 3.19 3.08 3.12 3.14 3.03 3.11 3.11 3.44 3.78 4.10 4.36 4.44 4.31 4.16 3.95 3.75 3.61 3.38 3.19 3.07 2.97
6.04 5.84 5.75 5.60 5.53 5.43 5.38 5.23 5.01 4.84 4.61 4.46 4.41 4.59 4.26 3.81 3.37 3.06 2.68 2.63 2.80 2.93 2.85 2.84 2.76 2.84 2.91 3.01 2.94 3.10 3.37 3.45 3.85 4.16 4.26 4.10 3.86 3.66 3.55 3.49 3.39 3.31 3.23
5.58 5.34 5.26 5.20 5.09 4.75 4.61 4.48 4.45 4.31 4.16 3.97 4.02 3.91 3.77 3.61 3.63 3.52 3.23 3.00 2.93 2.92 2.85 2.71 2.60 2.72 2.75 2.89 3.04 2.99 2.99 2.96 3.25 3.65 3.97 4.03 3.87 3.79 3.72 3.63 3.57 3.53 3.50
4.97 4.68 4.60 4.51 4.28 3.88 3.57 3.49 3.70 3.76 3.73 3.63 3.64 3.63 3.64 3.51 3.40 3.40 3.35 3.27 3.21 3.02 2.89 2.87 2.80 2.76 2.68 2.67 2.78 2.90 2.87 2.67 2.73 2.93 3.36 3.73 3.87 3.92 3.86 3.69 3.66 3.65 3.66
4.43 4.04 3.71 3.52 3.28 3.09 2.91 2.90 3.00 3.10 3.34 3.43 3.57 3.55 3.55 3.46 3.28 3.28 3.18 3.16 3.23 3.13 2.93 2.75 2.67 2.64 2.62 2.56 2.51 2.77 2.55 2.39 2.34 2.40 2.61 2.94 3.32 3.57 3.52 3.55 3.65 3.74 3.82
3.66 3.33 3.02 2.93 2.81 2.71 2.66 2.68 2.71 2.67 2.80 2.98 3.11 3.22 3.28 3.24 3.23 3.26 3.35 3.31 3.18 3.00 2.90 2.69 2.46 2.39 2.42 2.49 2.47 2.55 2.31 2.18 2.09 2.05 2.06 2.18 2.38 2.69 2.92 3.13 3.29 3.41 3.49
2.85 2.65 2.42 2.27 2.26 2.34 2.28 2.39 2.44 2.46 2.47 2.52 2.58 2.86 2.96 2.94 2.99 2.98 3.02 3.18 3.24 3.04 2.76 2.52 2.36 2.23 2.16 2.12 2.19 2.24 1.95 1.97 1.79 1.74 1.75 1.81 1.89 2.00 2.18 2.34 2.45 2.51 2.58
2.16 2.01 1.93 1.90 1.88 1.95 2.09 2.15 2.11 2.14 2.26 2.29 2.33 2.48 2.49 2.46 2.55 2.64 2.75 2.88 3.11 3.09 2.78 2.42 2.24 2.07 1.92 1.85 1.98 1.79 1.68 1.71 1.52 1.43 1.44 1.49 1.51 1.61 1.69 1.78 1.92 1.94 1.91
1.86 1.82 1.75 1.69 1.65 1.64 1.68 1.79 1.86 1.91 1.95 2.08 2.16 2.19 2.19 2.13 2.19 2.30 2.49 2.65 2.73 2.80 2.65 2.20 1.92 1.78 1.72 1.60 1.79 1.64 1.64 1.62 1.34 1.28 1.27 1.36 1.43 1.47 1.48 1.52 1.57 1.68 1.68
1.64 1.60 1.53 1.45 1.40 1.40 1.45 1.57 1.61 1.67 1.73 1.84 1.94 1.95 1.98 1.96 2.05 2.07 2.12 2.17 2.31 2.42 2.38 2.05 1.86 1.79 1.74 1.65 1.69 1.72 1.68 1.56 1.34 1.32 1.23 1.25 1.30 1.33 1.34 1.36 1.36 1.41 1.52
1.56 1.53 1.43 1.33 1.25 1.24 1.28 1.32 1.35 1.38 1.54 1.61 1.65 1.71 1.68 1.73 1.82 1.79 1.83 1.86 1.95 2.09 2.15 2.12 2.00 1.93 1.84 1.71 1.75 1.77 1.50 1.32 1.27 1.28 1.16 1.08 1.09 1.11 1.14 1.17 1.18 1.15 1.17
1.56 1.46 1.32 1.24 1.19 1.14 1.16 1.20 1.25 1.27 1.36 1.43 1.45 1.52 1.53 1.58 1.55 1.48 1.54 1.63 1.68 1.75 1.96 1.98 1.87 1.82 1.70 1.59 1.75 1.65 1.52 1.62 1.26 1.19 1.09 1.00 0.98 0.94 0.96 0.98 1.00 0.99 0.94
1.46 1.39 1.33 1.25 1.19 1.13 1.13 1.14 1.14 1.26 1.32 1.32 1.30 1.33 1.30 1.32 1.36 1.41 1.42 1.58 1.66 1.80 1.90 1.89 1.81 1.75 1.66 1.60 1.76 1.74 1.72 1.68 1.42 1.09 1.05 0.91 0.94 0.91 0.89 0.88 0.87 0.86 0.85
1.46 1.40 1.33 1.28 1.16 1.04 0.97 0.99 1.03 1.09 1.20 1.23 1.22 1.17 1.15 1.20 1.28 1.29 1.25 1.38 1.55 1.73 1.73 1.73 1.71 1.72 1.64 1.70 1.67 1.61 1.67 1.73 1.61 1.36 1.37 1.12 1.04 1.06 1.04 0.96 0.89 0.87 0.83
1.41 1.36 1.26 1.15 1.07 0.94 0.96 0.94 0.96 1.04 1.12 1.16 1.13 1.11 1.08 1.06 1.08 1.12 1.10 1.18 1.37 1.51 1.61 1.69 1.70 1.71 1.68 1.77 1.78 1.76 1.76 1.82 1.78 1.49 1.55 1.45 1.30 1.35 1.23 1.10 0.99 0.86 0.79
1.41 1.33 1.21 1.16 1.12 1.04 0.92 0.82 0.86 0.96 1.09 1.08 1.08 1.12 0.98 0.88 1.00 1.01 1.05 1.06 1.10 1.16 1.30 1.52 1.68 1.73 1.85 1.97 2.07 1.98 1.92 1.87 1.86 1.66 1.79 1.71 1.55 1.57 1.27 1.10 1.13 0.96 0.83
1.32 1.31 1.29 1.32 1.32 1.10 0.88 0.75 0.84 1.02 1.11 1.00 0.94 0.99 1.06 1.06 0.99 0.99 1.03 1.07 1.09 1.09 1.12 1.19 1.47 1.58 1.62 1.83 2.05 2.07 2.05 1.96 1.93 1.90 2.01 1.96 1.58 1.49 1.31 1.46 1.42 1.22 1.02
1.22 1.25 1.28 1.33 1.30 1.16 0.97 0.81 0.84 0.98 1.08 1.04 0.99 0.93 0.92 0.95 0.94 0.99 1.09 1.25 1.29 1.26 1.02 1.07 1.21 1.30 1.36 1.51 1.67 1.88 2.08 2.17 2.07 1.93 1.93 1.94 1.71 1.60 1.61 1.79 1.68 1.58 1.35
1.11 1.11 1.16 1.26 1.21 1.11 0.92 0.76 0.75 0.79 0.91 1.06 1.15 1.13 1.06 0.97 0.94 0.99 1.13 1.32 1.38 1.36 1.35 1.47 1.58 1.56 1.54 1.58 1.54 1.73 2.06 2.20 2.13 2.05 1.90 1.95 1.91 1.87 1.95 1.94 1.92 1.80 1.70